QPF
0.03 0.03 0.06 0.10 0.09 0.13 0.07 0.03 0.06 0.08 0.11 0.07 0.01 0.01 0.00 0.00 0.00 0.01 0.00 0.00 0.00 0.00 0.00 0.01 0.02 0.01 0.01 0.02 0.00 0.00 0.00 0.00 0.00
0.00 0.00 0.01 0.02 0.05 0.05 0.03 0.01 0.04 0.04 0.07 0.03 0.01 0.02 0.01 0.01 0.02 0.02 0.01 0.01 0.02 0.01 0.00 0.00 0.00 0.01 0.04 0.01 0.00 0.02 0.04 0.02 0.01
0.00 0.00 0.00 0.00 0.00 0.00 0.02 0.04 0.06 0.09 0.09 0.04 0.02 0.02 0.02 0.02 0.03 0.09 0.07 0.09 0.05 0.02 0.00 0.01 0.02 0.05 0.11 0.05 0.02 0.02 0.04 0.09 0.02
0.00 0.00 0.00 0.00 0.00 0.00 0.00 0.00 0.01 0.02 0.02 0.01 0.01 0.02 0.03 0.05 0.05 0.04 0.05 0.04 0.02 0.02 0.04 0.05 0.03 0.08 0.06 0.03 0.04 0.03 0.07 0.11 0.11
0.00 0.00 0.00 0.00 0.00 0.00 0.00 0.00 0.00 0.00 0.00 0.00 0.00 0.00 0.00 0.01 0.02 0.04 0.07 0.06 0.10 0.16 0.13 0.02 0.00 0.01 0.02 0.04 0.03 0.05 0.04 0.03 0.09
0.00 0.00 0.00 0.00 0.00 0.00 0.00 0.00 0.00 0.00 0.00 0.00 0.00 0.00 0.00 0.00 0.00 0.00 0.01 0.03 0.05 0.13 0.20 0.15 0.10 0.02 0.01 0.00 0.00 0.00 0.02 0.03 0.01
0.00 0.00 0.00 0.00 0.00 0.00 0.00 0.00 0.00 0.00 0.00 0.00 0.00 0.00 0.00 0.00 0.00 0.00 0.01 0.00 0.00 0.03 0.03 0.07 0.07 0.07 0.06 0.01 0.00 0.00 0.00 0.00 0.00
0.00 0.00 0.00 0.00 0.00 0.00 0.00 0.00 0.00 0.00 0.00 0.00 0.00 0.00 0.00 0.00 0.00 0.00 0.01 0.01 0.01 0.01 0.01 0.01 0.02 0.01 0.01 0.00 0.00 0.00 0.00 0.04 0.05
0.00 0.00 0.00 0.00 0.00 0.00 0.00 0.00 0.00 0.00 0.00 0.00 0.00 0.00 0.00 0.00 0.00 0.00 0.00 0.01 0.01 0.01 0.01 0.01 0.01 0.00 0.00 0.00 0.00 0.00 0.00 0.00 0.01
0.00 0.00 0.00 0.00 0.00 0.00 0.00 0.00 0.00 0.00 0.00 0.00 0.00 0.00 0.00 0.00 0.00 0.00 0.00 0.00 0.01 0.01 0.02 0.02 0.01 0.00 0.00 0.00 0.00 0.00 0.00 0.00 0.00
0.00 0.00 0.00 0.00 0.00 0.00 0.00 0.00 0.00 0.00 0.00 0.00 0.00 0.00 0.00 0.00 0.00 0.00 0.00 0.00 0.00 0.01 0.01 0.01 0.00 0.02 0.03 0.00 0.00 0.00 0.00 0.00 0.00
0.00 0.00 0.00 0.00 0.00 0.00 0.00 0.00 0.00 0.00 0.00 0.00 0.00 0.00 0.00 0.00 0.00 0.00 0.00 0.00 0.00 0.00 0.00 0.00 0.01 0.02 0.01 0.00 0.00 0.00 0.00 0.00 0.00
0.00 0.00 0.00 0.00 0.00 0.00 0.00 0.00 0.00 0.00 0.00 0.00 0.00 0.00 0.00 0.00 0.00 0.00 0.00 0.00 0.00 0.00 0.00 0.00 0.02 0.01 0.00 0.00 0.00 0.00 0.00 0.01 0.00
0.00 0.00 0.00 0.00 0.00 0.00 0.00 0.00 0.00 0.00 0.00 0.00 0.00 0.00 0.00 0.00 0.00 0.00 0.00 0.00 0.00 0.00 0.00 0.00 0.00 0.00 0.00 0.00 0.02 0.00 0.00 0.01 0.00
0.00 0.00 0.00 0.00 0.00 0.00 0.00 0.00 0.00 0.00 0.00 0.00 0.00 0.00 0.00 0.00 0.00 0.00 0.00 0.00 0.00 0.00 0.00 0.00 0.00 0.00 0.00 0.03 0.04 0.03 0.02 0.03 0.02
0.00 0.00 0.00 0.00 0.00 0.00 0.00 0.00 0.00 0.00 0.00 0.00 0.00 0.00 0.00 0.00 0.00 0.00 0.00 0.00 0.00 0.00 0.00 0.00 0.00 0.01 0.03 0.01 0.04 0.07 0.08 0.05 0.04
0.00 0.00 0.00 0.00 0.00 0.00 0.00 0.00 0.00 0.00 0.00 0.00 0.00 0.00 0.00 0.00 0.00 0.00 0.00 0.00 0.00 0.01 0.01 0.01 0.02 0.05 0.04 0.01 0.02 0.03 0.05 0.03 0.02
0.00 0.00 0.00 0.00 0.00 0.00 0.00 0.00 0.00 0.00 0.00 0.00 0.00 0.00 0.00 0.00 0.00 0.00 0.00 0.00 0.02 0.02 0.01 0.02 0.02 0.01 0.01 0.01 0.01 0.00 0.00 0.00 0.00
0.00 0.00 0.00 0.00 0.00 0.00 0.00 0.00 0.00 0.00 0.00 0.00 0.00 0.00 0.00 0.00 0.00 0.00 0.00 0.00 0.00 0.02 0.02 0.02 0.04 0.02 0.00 0.00 0.00 0.00 0.00 0.00 0.00
0.00 0.00 0.00 0.00 0.00 0.00 0.00 0.00 0.00 0.00 0.00 0.00 0.00 0.00 0.00 0.00 0.00 0.00 0.00 0.00 0.01 0.01 0.01 0.04 0.09 0.03 0.00 0.00 0.00 0.00 0.00 0.00 0.00
MSLP
1010.26 1011.20 1011.70 1012.74 1012.78 1013.19 1013.65 1013.24 1012.38 1012.16 1012.51 1012.75 1013.03 1012.90 1012.88 1012.89 1012.95 1013.29 1013.44 1013.59 1013.90 1014.05 1014.18 1014.18 1013.98 1013.97 1014.00 1014.23 1014.23 1014.50 1014.83 1015.17 1015.31
1011.42 1011.81 1011.81 1012.05 1013.01 1013.04 1013.08 1012.62 1013.02 1013.19 1013.54 1014.03 1013.92 1013.63 1013.19 1013.18 1013.07 1012.84 1013.03 1013.12 1013.32 1013.44 1013.40 1013.42 1013.45 1013.52 1013.69 1013.92 1014.03 1014.28 1014.54 1014.64 1014.89
1012.31 1012.51 1012.55 1012.47 1013.01 1013.78 1013.98 1013.62 1013.96 1014.11 1014.23 1014.17 1014.00 1013.77 1013.44 1013.43 1013.47 1013.29 1013.13 1013.00 1012.97 1013.03 1012.96 1013.11 1013.08 1013.22 1013.38 1013.52 1013.72 1013.96 1014.07 1014.29 1014.26
1012.27 1013.03 1013.28 1013.21 1013.28 1013.86 1014.21 1014.22 1014.25 1014.23 1014.10 1014.02 1013.87 1013.66 1013.68 1013.64 1013.46 1013.43 1013.10 1012.95 1012.82 1012.72 1012.63 1012.73 1013.01 1012.92 1012.97 1013.00 1013.20 1013.27 1013.48 1013.58 1013.75
1012.64 1013.05 1013.62 1013.89 1013.92 1014.18 1014.60 1014.66 1014.48 1014.50 1014.31 1014.14 1014.02 1013.80 1013.73 1013.67 1013.63 1013.48 1013.31 1013.00 1012.64 1012.73 1012.58 1012.36 1012.43 1012.55 1012.56 1012.51 1012.61 1012.69 1012.85 1013.08 1013.13
1012.83 1013.55 1013.83 1014.30 1014.53 1014.85 1015.13 1015.12 1014.96 1014.87 1014.76 1014.74 1014.54 1014.39 1014.26 1014.11 1013.86 1013.60 1013.28 1012.97 1012.76 1012.69 1012.67 1012.70 1012.31 1012.40 1012.32 1012.21 1012.15 1012.13 1012.10 1012.27 1012.39
1013.04 1013.73 1014.31 1015.03 1015.18 1015.42 1015.58 1015.61 1015.49 1015.36 1015.18 1015.07 1014.94 1014.84 1014.82 1014.61 1014.36 1013.85 1013.39 1013.00 1012.83 1012.62 1012.48 1012.39 1012.28 1012.13 1011.99 1012.01 1011.77 1011.65 1011.65 1011.67 1011.67
1013.29 1014.24 1014.72 1015.12 1015.52 1015.80 1015.96 1015.95 1015.76 1015.66 1015.73 1015.57 1015.54 1015.49 1015.21 1014.84 1014.36 1013.94 1013.48 1013.00 1012.75 1012.58 1012.37 1012.18 1011.93 1011.80 1011.64 1011.63 1011.46 1011.29 1011.15 1011.19 1011.27
1013.96 1014.60 1015.02 1015.36 1015.74 1016.06 1016.24 1016.17 1016.07 1015.89 1015.84 1015.71 1015.57 1015.65 1015.47 1015.14 1014.77 1014.38 1013.93 1013.51 1012.93 1012.46 1012.24 1012.00 1011.78 1011.57 1011.33 1011.23 1011.02 1010.79 1010.80 1010.81 1010.88
1014.33 1014.95 1015.45 1015.88 1016.26 1016.40 1016.30 1016.13 1015.98 1016.15 1016.07 1015.96 1015.96 1015.89 1015.69 1015.47 1015.20 1014.83 1014.46 1013.93 1013.42 1012.94 1012.43 1011.99 1011.72 1011.39 1011.14 1010.92 1010.63 1010.47 1010.34 1010.30 1010.32
1014.72 1015.36 1015.99 1016.23 1016.29 1016.33 1016.27 1016.25 1016.31 1016.39 1016.35 1016.33 1016.18 1015.98 1015.85 1015.63 1015.35 1015.01 1014.60 1014.12 1013.69 1013.23 1012.74 1012.28 1011.81 1011.31 1010.81 1010.55 1010.16 1009.96 1009.86 1009.82 1009.84
1014.92 1015.52 1015.79 1015.99 1016.15 1016.19 1016.43 1016.58 1016.71 1016.71 1016.65 1016.54 1016.27 1016.12 1016.04 1015.75 1015.49 1015.07 1014.63 1014.13 1013.65 1013.19 1012.87 1012.27 1011.71 1011.15 1010.65 1010.28 1009.75 1009.55 1009.56 1009.50 1009.43
1014.87 1015.22 1015.58 1015.84 1016.03 1016.30 1016.59 1016.81 1016.89 1016.95 1016.93 1016.78 1016.69 1016.49 1016.17 1015.79 1015.43 1015.06 1014.53 1014.00 1013.48 1012.99 1012.65 1012.03 1011.45 1010.84 1010.35 1009.87 1009.43 1008.94 1008.88 1008.89 1008.95
1014.69 1015.05 1015.45 1015.75 1016.26 1016.69 1016.93 1017.09 1017.14 1017.22 1017.11 1016.92 1016.73 1016.49 1016.11 1015.75 1015.31 1014.96 1014.30 1013.49 1013.04 1012.74 1012.36 1011.82 1011.17 1010.68 1010.04 1009.59 1009.12 1008.57 1008.26 1008.13 1008.42
1014.72 1015.23 1015.53 1015.92 1016.51 1016.97 1017.11 1017.24 1017.26 1017.31 1017.25 1016.96 1016.65 1016.37 1015.96 1015.47 1014.98 1014.59 1014.05 1013.40 1012.66 1012.23 1011.92 1011.42 1010.76 1010.27 1009.69 1009.12 1008.67 1008.12 1007.87 1007.76 1007.69
1015.01 1015.42 1015.85 1016.25 1016.85 1017.27 1017.38 1017.34 1017.37 1017.30 1017.09 1016.77 1016.51 1016.20 1015.87 1015.35 1014.78 1014.28 1013.62 1013.15 1012.32 1011.76 1011.30 1010.86 1010.32 1009.90 1009.57 1009.11 1008.57 1008.21 1007.80 1007.94 1007.82
1015.36 1015.75 1016.20 1016.56 1017.05 1017.42 1017.48 1017.49 1017.42 1017.31 1017.14 1016.85 1016.56 1016.23 1015.77 1015.24 1014.58 1013.90 1013.27 1012.53 1011.77 1011.34 1010.83 1010.34 1009.92 1009.68 1009.43 1008.97 1008.70 1008.18 1007.55 1007.74 1007.69
1015.73 1016.08 1016.44 1016.67 1017.19 1017.51 1017.56 1017.49 1017.38 1017.12 1016.93 1016.78 1016.48 1016.12 1015.70 1015.17 1014.45 1013.72 1012.99 1012.25 1011.62 1011.02 1010.29 1009.88 1009.54 1009.20 1009.00 1008.84 1008.61 1007.97 1007.62 1007.83 1007.71
1015.93 1016.25 1016.44 1016.78 1017.16 1017.45 1017.57 1017.40 1017.16 1016.96 1016.79 1016.61 1016.33 1015.97 1015.67 1015.08 1014.36 1013.63 1012.93 1012.09 1011.14 1010.48 1009.93 1009.03 1008.80 1009.00 1009.03 1008.40 1008.13 1007.97 1008.03 1008.13 1007.86
1016.01 1016.28 1016.41 1016.73 1016.97 1017.18 1017.24 1017.15 1017.03 1016.80 1016.67 1016.40 1016.18 1015.95 1015.58 1015.01 1014.35 1013.65 1012.92 1012.26 1011.64 1010.73 1009.65 1009.12 1009.20 1009.30 1009.31 1009.29 1008.99 1008.53 1008.37 1007.94 1007.43
Thickness
5814 5809 5808 5796 5797 5795 5792 5795 5805 5811 5813 5814 5811 5811 5810 5808 5807 5804 5802 5801 5797 5794 5792 5792 5795 5793 5793 5791 5788 5787 5787 5784 5783
5798 5801 5807 5807 5796 5799 5802 5803 5800 5800 5800 5797 5798 5800 5803 5802 5803 5804 5801 5801 5799 5797 5798 5797 5796 5795 5791 5789 5788 5786 5785 5784 5782
5786 5791 5795 5799 5796 5790 5788 5794 5792 5790 5788 5787 5789 5792 5794 5795 5793 5795 5797 5797 5796 5796 5796 5795 5793 5790 5789 5787 5785 5783 5783 5781 5782
5787 5783 5783 5788 5790 5787 5783 5784 5784 5784 5784 5783 5783 5784 5784 5784 5786 5786 5789 5790 5790 5791 5792 5790 5788 5787 5786 5784 5782 5781 5781 5781 5779
5783 5782 5777 5779 5780 5778 5774 5773 5774 5774 5775 5775 5775 5776 5775 5774 5774 5776 5776 5778 5782 5781 5778 5783 5784 5783 5782 5782 5781 5780 5778 5775 5776
5778 5773 5771 5769 5769 5765 5762 5764 5764 5764 5765 5763 5764 5764 5763 5762 5763 5764 5767 5769 5770 5771 5770 5769 5769 5773 5775 5776 5776 5777 5778 5776 5773
5773 5765 5763 5756 5755 5753 5753 5754 5755 5755 5756 5756 5754 5753 5751 5750 5751 5753 5756 5758 5759 5762 5762 5762 5762 5765 5766 5766 5770 5772 5772 5771 5771
5765 5753 5751 5751 5748 5746 5746 5747 5748 5748 5744 5744 5743 5741 5741 5741 5743 5744 5747 5750 5751 5752 5753 5754 5756 5757 5758 5758 5760 5763 5764 5764 5764
5749 5745 5745 5745 5742 5740 5738 5739 5739 5739 5737 5736 5734 5730 5729 5729 5730 5730 5732 5734 5738 5741 5743 5745 5747 5749 5751 5751 5754 5756 5755 5755 5756
5741 5740 5737 5733 5731 5730 5732 5733 5733 5729 5727 5726 5723 5721 5721 5719 5717 5717 5717 5719 5721 5724 5729 5733 5735 5738 5741 5743 5746 5747 5747 5748 5749
5735 5731 5726 5725 5725 5725 5727 5725 5722 5719 5718 5713 5711 5710 5708 5708 5707 5707 5708 5709 5709 5710 5713 5717 5721 5726 5730 5733 5737 5738 5738 5738 5740
5730 5726 5724 5723 5722 5722 5718 5714 5711 5707 5704 5702 5701 5699 5696 5697 5696 5697 5698 5698 5699 5700 5701 5705 5708 5714 5718 5722 5726 5728 5728 5729 5731
5729 5727 5723 5719 5718 5714 5708 5703 5700 5696 5692 5689 5686 5685 5684 5685 5685 5686 5688 5689 5690 5691 5692 5696 5700 5704 5708 5712 5716 5719 5720 5720 5723
5727 5723 5718 5714 5707 5701 5697 5693 5688 5682 5679 5677 5675 5674 5674 5674 5674 5675 5678 5682 5682 5683 5683 5686 5690 5693 5697 5701 5705 5710 5712 5714 5714
5718 5712 5709 5705 5697 5691 5686 5682 5677 5671 5667 5665 5665 5664 5665 5666 5667 5667 5669 5671 5674 5675 5676 5677 5681 5684 5687 5690 5694 5701 5705 5705 5706
5709 5704 5699 5694 5686 5680 5676 5673 5667 5662 5658 5658 5657 5656 5656 5657 5658 5660 5663 5663 5666 5667 5669 5670 5672 5675 5675 5678 5683 5688 5691 5689 5692
5698 5694 5689 5684 5676 5670 5667 5662 5658 5653 5650 5649 5648 5648 5648 5648 5650 5652 5654 5657 5660 5659 5660 5662 5664 5664 5665 5669 5671 5675 5680 5679 5682
5688 5684 5679 5674 5667 5660 5657 5654 5650 5647 5645 5643 5642 5640 5640 5640 5642 5644 5646 5649 5650 5652 5655 5656 5657 5659 5660 5660 5662 5668 5670 5668 5671
5679 5674 5671 5665 5658 5652 5647 5645 5644 5641 5639 5637 5635 5633 5631 5631 5634 5636 5640 5642 5644 5648 5649 5653 5652 5650 5650 5656 5658 5654 5652 5651 5652
5671 5666 5663 5656 5650 5645 5641 5638 5637 5635 5632 5630 5628 5625 5624 5624 5626 5629 5632 5633 5634 5636 5644 5647 5642 5639 5639 5638 5638 5639 5639 5642 5644